[[{"header":{"parameterUnit":"m.s-1","parameterCategory":1,"la1":30.2991,"la2":30.254,"lo1":-89.0895,"lo2":-89.0444,"dy":0.0017,"dx":0.0017,"nx":28,"ny":28,"refTime":"2024-03-29T21:00:00:Z","depth":0,"parameterNumber":2,"parameterNumberName":"U-component_of_WINDS"},"data":[0,0,0,0,0,0,0,0,0,0,0,0,0,0,0,0,0,0,0,0,0,0,0,0,0,0,0,0,0,0,0,0,0,0,0,0,0,0,0,0,0,0,0,0,0,0,0,0,0,0,0,0,0,0,0,0,0,0,-0.6225,-0.6227,0,-0.6385,-0.6387,-0.6389,-0.6419,-0.6417,-0.6416,-0.6415,-0.6582,-0.6587,-0.6593,0,0,0,0,0,0,0,0,0,0,0,0,0,-0.5949,-0.5954,-0.6225,-0.6227,-0.6229,-0.6385,-0.6387,-0.6389,-0.6419,-0.6417,-0.6416,-0.6414,-0.658,-0.6586,-0.6593,0,0,0,0,0,0,0,0,0,0,0,0,0,-0.6085,-0.5956,-0.6225,-0.6263,-0.6268,-0.6384,-0.6387,-0.639,-0.6419,-0.6417,-0.6415,-0.6413,-0.6578,-0.6586,-0.6594,-0.6685,0,0,-0.662,-0.6624,0,0,0,0,0,0,0,0,-0.6077,-0.6095,-0.6255,-0.626,-0.6266,-0.638,-0.6351,-0.6489,-0.642,-0.6362,-0.6415,-0.6412,-0.6516,-0.653,-0.6564,-0.6693,-0.67,-0.6621,-0.6626,-0.663,-0.6632,0,0,0,0,0,0,0,-0.6068,-0.6088,-0.6289,-0.6257,-0.6264,-0.6273,-0.629,-0.6377,-0.6448,-0.6367,-0.6369,-0.6387,-0.6519,-0.6556,-0.6568,-0.6703,-0.6621,-0.6628,-0.6633,-0.6637,-0.6915,-0.6917,0,0,0,0,0,0,-0.6051,-0.608,-0.6283,-0.6293,-0.6165,-0.6279,-0.6298,-0.6345,-0.6447,-0.6461,-0.6389,-0.6388,-0.6542,-0.6558,-0.6574,-0.6687,-0.663,-0.6637,-0.6642,-0.6913,-0.6915,-0.6918,0,0,0,0,0,0,-0.6045,-0.6069,-0.6277,-0.6188,-0.6215,-0.6286,-0.6338,-0.6349,-0.6386,-0.6464,-0.6477,-0.6413,-0.6541,-0.6562,-0.6657,-0.6693,-0.6641,-0.6649,-0.691,-0.6913,-0.6917,-0.6914,0,0,0,0,0,0,-0.6037,-0.6067,-0.6101,-0.6188,-0.6219,-0.6356,-0.6341,-0.6354,-0.64,-0.6401,-0.649,-0.6503,-0.6541,-0.6644,-0.6666,-0.6704,-0.6656,-0.6907,-0.6911,-0.6915,-0.6911,-0.6917,-0.6922,0,0,0,0,0,-0.6027,-0.6095,-0.6103,-0.6127,-0.6264,-0.6358,-0.6376,-0.6418,-0.6403,-0.6439,-0.6489,-0.65,-0.6686,-0.6654,-0.6678,-0.672,-0.6905,-0.691,-0.6915,-0.6909,-0.6916,-0.6922,0,0,0,0,0,0,-0.6012,-0.6107,-0.6117,-0.6215,-0.6278,-0.6363,-0.641,-0.6424,-0.6494,-0.6492,-0.6541,-0.6561,-0.6653,-0.6696,-0.6659,-0.6813,-0.6795,-0.6805,-0.6782,-0.6789,-0.6794,-0.6782,-0.6663,0,0,0,0,0,-0.602,-0.6087,-0.6167,-0.6246,-0.6277,-0.6338,-0.6381,-0.6407,-0.6475,-0.6502,-0.6559,-0.6626,-0.6699,-0.6747,-0.6819,-0.6918,-0.6938,-0.6959,-0.6964,-0.6968,-0.6976,-0.7032,-0.7042,-0.6935,-0.6935,-0.6935,0,0,-0.6037,-0.6097,-0.6137,-0.6245,-0.6297,-0.6367,-0.636,-0.6435,-0.6487,-0.6514,-0.6607,-0.6651,-0.6729,-0.6826,-0.6872,-0.6865,-0.701,-0.6975,-0.6977,-0.6983,-0.7038,-0.7048,-0.7057,-0.6938,-0.6938,-0.6937,0,0,-0.6104,-0.6156,-0.6227,-0.6279,-0.6358,-0.6398,-0.6415,-0.6498,-0.6528,-0.6622,-0.6643,-0.6707,-0.6833,-0.6887,-0.6931,-0.7018,-0.7031,-0.704,-0.7068,-0.7122,-0.713,-0.7138,-0.7169,-0.7179,-0.7048,-0.7048,-0.7048,0,-0.6115,-0.622,-0.6262,-0.6335,-0.6382,-0.6408,-0.6481,-0.653,-0.6629,-0.6661,-0.6651,-0.6809,-0.6863,-0.6973,-0.6994,-0.7029,-0.7051,-0.703,-0.7125,-0.7134,-0.7141,-0.7171,-0.7183,-0.7049,-0.7049,-0.7049,-0.7049,0,-0.6231,-0.6303,-0.6351,-0.6444,-0.6497,-0.6569,-0.6623,-0.6671,-0.6693,-0.6734,-0.6829,-0.6895,-0.6981,-0.7009,-0.7032,-0.7123,-0.7116,-0.7115,-0.7097,-0.7151,-0.718,-0.7192,-0.705,-0.7049,-0.7049,-0.7049,0,0,-0.6292,-0.6407,-0.6424,-0.6466,-0.6555,-0.6612,-0.6687,-0.6769,-0.6809,-0.6877,-0.694,-0.7045,-0.7045,-0.7095,-0.7125,-0.7172,-0.7236,-0.7166,-0.7168,-0.7176,-0.734,-0.7339,-0.7352,-0.7245,-0.7248,-0.725,-0.7334,0,-0.6369,-0.65,-0.654,-0.6651,-0.6719,-0.6745,-0.681,-0.6871,-0.6912,-0.6976,-0.7022,-0.7095,-0.709,-0.712,-0.7168,-0.7218,-0.727,-0.7213,-0.7306,-0.7308,-0.7284,-0.7367,-0.7367,-0.7443,-0.7345,-0.7347,-0.7349,0,-0.6476,-0.6544,-0.6661,-0.674,-0.677,-0.6828,-0.6906,-0.6967,-0.7038,-0.7064,-0.712,-0.7145,-0.7224,-0.7202,-0.7312,-0.7273,-0.7313,-0.7344,-0.7348,-0.7358,-0.7331,-0.7379,-0.7468,-0.7479,-0.7367,-0.7365,-0.7364,0,-0.6509,-0.6629,-0.6715,-0.675,-0.6846,-0.6885,-0.6927,-0.6996,-0.7043,-0.7112,-0.7143,-0.7221,-0.7264,-0.7324,-0.737,-0.735,-0.7476,-0.7458,-0.7501,-0.7499,-0.7526,-0.7523,-0.7622,-0.7553,-0.7552,-0.7552,-0.7552,0,-0.659,-0.6661,-0.673,-0.6783,-0.6863,-0.6908,-0.6986,-0.703,-0.7091,-0.7153,-0.7181,-0.7239,-0.7297,-0.7362,-0.7399,-0.7485,-0.7504,-0.7528,-0.7537,-0.7525,-0.7522,-0.7552,-0.7547,-0.7555,-0.7555,-0.7554,-0.7554,0,-0.6639,-0.6689,-0.6784,-0.6866,-0.6888,-0.6943,-0.7014,-0.7067,-0.7108,-0.7186,-0.7207,-0.7273,-0.7352,-0.7404,-0.7505,-0.753,-0.7623,-0.7631,-0.7598,-0.7602,-0.7641,-0.7637,-0.7762,-0.7781,-0.77,-0.77,-0.7701,0,-0.6688,-0.6742,-0.683,-0.6873,-0.6914,-0.6983,-0.7031,-0.7078,-0.7127,-0.7212,-0.7254,-0.7335,-0.7401,-0.7526,-0.7584,-0.7661,-0.7671,-0.771,-0.7683,-0.7669,-0.7671,-0.7667,-0.7673,-0.7714,-0.7714,-0.7715,-0.7715,0,-0.6768,-0.679,-0.6856,-0.6932,-0.6988,-0.705,-0.7112,-0.7146,-0.7205,-0.7258,-0.7338,-0.739,-0.7492,-0.7572,-0.7655,-0.7699,-0.7717,-0.7723,-0.7737,-0.7726,-0.7704,-0.7716,-0.7609,-0.772,-0.772,-0.7719,-0.7719,-0.7719,-0.6818,-0.6868,-0.6937,-0.701,-0.7062,-0.7119,-0.7172,-0.722,-0.7287,-0.7373,-0.7398,-0.7481,-0.7552,-0.7665,-0.771,-0.7777,-0.7773,-0.7793,-0.7798,-0.7802,-0.7802,-0.7694,-0.7793,-0.7793,-0.7793,-0.7793,-0.7793,0,-0.6899,-0.6945,-0.7012,-0.7098,-0.7156,-0.7167,-0.7236,-0.7284,-0.7357,-0.742,-0.7485,-0.7577,-0.7655,-0.7718,-0.7798,-0.7839,-0.785,-0.7859,-0.7856,-0.7866,-0.7802,-0.7781,-0.7849,-0.7849,-0.7849,-0.7849,-0.7849,-0.7849,-0.6948,-0.7032,-0.7062,-0.7172,-0.7218,-0.7299,-0.7338,-0.7391,-0.7442,-0.7543,-0.7607,-0.7647,-0.7711,-0.7796,-0.7867,-0.7884,-0.7912,-0.7919,-0.7938,-0.7877,-0.787,-0.7864,-0.7845,-0.7925,-0.7925,-0.7996,-0.7997,-0.7997]},{"header":{"parameterUnit":"m.s-1","parameterCategory":1,"la1":30.2991,"la2":30.254,"lo1":-89.0895,"lo2":-89.0444,"dy":0.0017,"dx":0.0017,"nx":28,"ny":28,"refTime":"2024-03-29T21:00:00:Z","depth":0,"parameterNumber":3,"parameterNumberName":"V-component_of_WINDS"},"data":[0,0,0,0,0,0,0,0,0,0,0,0,0,0,0,0,0,0,0,0,0,0,0,0,0,0,0,0,0,0,0,0,0,0,0,0,0,0,0,0,0,0,0,0,0,0,0,0,0,0,0,0,0,0,0,0,0,0,2.2473,2.2472,0,2.2459,2.2458,2.2458,2.2499,2.25,2.2502,2.2503,2.2485,2.2483,2.2481,0,0,0,0,0,0,0,0,0,0,0,0,0,2.2533,2.2532,2.2473,2.2472,2.2472,2.2459,2.2458,2.2458,2.2499,2.2501,2.2502,2.2504,2.2485,2.2483,2.2481,0,0,0,0,0,0,0,0,0,0,0,0,0,2.2511,2.2531,2.2473,2.2491,2.2493,2.2459,2.2458,2.2458,2.2499,2.2501,2.2502,2.2504,2.2486,2.2483,2.2481,2.2427,0,0,2.2473,2.2472,0,0,0,0,0,0,0,0,2.2513,2.2509,2.2489,2.249,2.2491,2.2483,2.2473,2.2448,2.2498,2.2496,2.2503,2.2505,2.2482,2.248,2.2473,2.2427,2.2426,2.2473,2.2472,2.2471,2.247,0,0,0,0,0,0,0,2.2514,2.251,2.2467,2.2488,2.249,2.2499,2.2499,2.2468,2.2478,2.2497,2.2499,2.2497,2.2483,2.2476,2.2473,2.2425,2.2473,2.2471,2.2469,2.2468,2.2337,2.2335,0,0,0,0,0,0,2.2514,2.2511,2.2467,2.2467,2.2507,2.2497,2.2496,2.2483,2.2479,2.248,2.2496,2.2499,2.2479,2.2476,2.2473,2.2411,2.2471,2.2468,2.2467,2.2339,2.2336,2.2334,0,0,0,0,0,0,2.2515,2.2509,2.2468,2.249,2.2485,2.2494,2.248,2.2482,2.2474,2.2479,2.248,2.2486,2.248,2.2476,2.2439,2.2411,2.2467,2.2465,2.2341,2.2338,2.2335,2.2286,0,0,0,0,0,0,2.2516,2.2509,2.2489,2.2489,2.2484,2.2435,2.2478,2.2481,2.247,2.2475,2.247,2.2471,2.2481,2.2443,2.2437,2.2408,2.2463,2.2344,2.234,2.2336,2.229,2.2282,2.2275,0,0,0,0,0,2.2518,2.2475,2.2488,2.2483,2.2459,2.2433,2.243,2.2444,2.2468,2.2448,2.2451,2.2471,2.2415,2.2439,2.2432,2.2403,2.2345,2.2341,2.2336,2.2294,2.2284,2.2275,0,0,0,0,0,0,2.2469,2.2475,2.249,2.2445,2.2439,2.244,2.2415,2.2433,2.2418,2.2423,2.244,2.2439,2.2399,2.2397,2.2423,2.2352,2.2384,2.2378,2.2354,2.2344,2.2337,2.2338,2.2461,0,0,0,0,0,2.2454,2.2433,2.2439,2.2399,2.2395,2.2406,2.2395,2.2407,2.24,2.2397,2.2398,2.239,2.2371,2.2358,2.234,2.2291,2.2291,2.2268,2.226,2.2253,2.2248,2.2224,2.2214,2.2319,2.2319,2.2319,0,0,2.242,2.2421,2.2406,2.2389,2.2386,2.2364,2.2403,2.2377,2.2361,2.2393,2.2359,2.2359,2.2351,2.2309,2.229,2.2306,2.2219,2.2248,2.2243,2.224,2.2218,2.2208,2.2199,2.2316,2.2317,2.2317,0,0,2.2349,2.2347,2.2314,2.2311,2.2306,2.2314,2.2306,2.2306,2.2308,2.2274,2.2298,2.2279,2.2245,2.224,2.2232,2.2162,2.218,2.2156,2.2115,2.2091,2.2082,2.2075,2.2051,2.2042,2.215,2.215,2.215,0,2.2307,2.2276,2.2295,2.2269,2.2261,2.2291,2.2258,2.2254,2.2242,2.2236,2.2255,2.2215,2.2212,2.217,2.2153,2.2145,2.2138,2.2156,2.2082,2.2075,2.2069,2.2046,2.2037,2.2147,2.2148,2.2148,2.2148,0,2.2227,2.2205,2.2179,2.217,2.2159,2.213,2.2144,2.2131,2.2144,2.215,2.2116,2.2114,2.2098,2.2089,2.21,2.2048,2.2059,2.208,2.2112,2.2055,2.2034,2.2026,2.2143,2.2144,2.2145,2.2146,0,0,2.2121,2.2126,2.2116,2.2113,2.2112,2.2095,2.2067,2.2053,2.2042,2.2034,2.2012,2.1984,2.2005,2.1996,2.2008,2.1987,2.1934,2.2011,2.2011,2.1997,2.1877,2.1862,2.1851,2.1946,2.1945,2.1943,2.1878,0,2.2052,2.2006,2.2023,2.1976,2.1957,2.1987,2.1964,2.196,2.1965,2.1949,2.1955,2.1936,2.1963,2.1959,2.194,2.1944,2.191,2.1949,2.1925,2.1924,2.1927,2.184,2.1823,2.1762,2.187,2.1869,2.1868,0,2.1964,2.1955,2.1907,2.1911,2.1903,2.1882,2.1872,2.1856,2.1853,2.1859,2.1851,2.1868,2.1842,2.1876,2.184,2.1866,2.1858,2.1859,2.1857,2.1855,2.1892,2.1836,2.1742,2.1734,2.1855,2.1856,2.1857,0,2.1893,2.1869,2.1838,2.1834,2.1838,2.1823,2.1823,2.1822,2.1814,2.1804,2.1799,2.1786,2.1779,2.1769,2.1783,2.1806,2.1745,2.1779,2.1749,2.1749,2.1735,2.1735,2.1638,2.1729,2.1729,2.1729,2.1729,0,2.1813,2.1783,2.1807,2.1787,2.1754,2.1775,2.1741,2.1745,2.1745,2.1727,2.1751,2.1733,2.1752,2.1737,2.1747,2.1717,2.1713,2.1717,2.172,2.1715,2.1714,2.1709,2.1714,2.1727,2.1727,2.1728,2.1728,0,2.1728,2.1743,2.1711,2.1719,2.172,2.1695,2.1701,2.1684,2.1692,2.1669,2.1665,2.1677,2.1661,2.1674,2.1656,2.1663,2.1624,2.1632,2.1625,2.1628,2.1597,2.16,2.1493,2.1481,2.1579,2.1578,2.1577,0,2.1677,2.1654,2.166,2.1651,2.1651,2.1635,2.1627,2.1647,2.1638,2.1634,2.1617,2.1603,2.1593,2.1564,2.1571,2.1559,2.1568,2.1531,2.1566,2.1562,2.1568,2.157,2.1568,2.1524,2.1523,2.1522,2.1521,0,2.1584,2.1593,2.1581,2.1573,2.1564,2.1557,2.1553,2.1544,2.1564,2.1553,2.1537,2.1529,2.1513,2.1498,2.1489,2.1489,2.1508,2.1511,2.1503,2.1498,2.1495,2.1497,2.1607,2.1513,2.1514,2.1514,2.1515,2.1515,2.1514,2.1497,2.1499,2.1486,2.1486,2.1482,2.1467,2.1475,2.1462,2.1452,2.1464,2.1445,2.1445,2.1434,2.1432,2.1418,2.1433,2.1421,2.1419,2.1416,2.1412,2.1497,2.1416,2.1416,2.1416,2.1417,2.1417,0,2.1423,2.1427,2.1415,2.141,2.14,2.1422,2.1419,2.1409,2.1392,2.1391,2.1381,2.1364,2.1351,2.1358,2.1347,2.1334,2.1343,2.1331,2.1332,2.1332,2.1399,2.1407,2.1324,2.1324,2.1324,2.1324,2.1324,2.1324,2.1375,2.1348,2.1357,2.133,2.1334,2.1317,2.1314,2.1311,2.131,2.1291,2.1281,2.1286,2.1289,2.1279,2.1268,2.127,2.1265,2.125,2.1256,2.1318,2.1327,2.1336,2.1343,2.1249,2.1249,2.1191,2.119,2.119]}]]